WMT7X LHBP-LFOB

Flight info

Callsign WMT7X
Flight time 1h 59m
Altitude 36000
Route GILEP DCT ZOLKU DCT BEGLA DCT LAMSI DCT MAMOR DCT ASPAT DCT VIBOM DCT BETEX DCT IDOSA DCT TOLVU/N0434F370 DCT RAPOR DCT VEDUS
Aircraft A320/M-SDE3FGHIRWY/LB1

Departure

Time 2026-05-05 17:14
Airport Budapest Liszt Ferenc International Airport (LHBP)

Arrival

Time 2026-05-05 19:13
Airport Beauvais-Tillé airport (LFOB)
Time Latitude Longitude Altitude Speed Heading
2026-05-05 16:51 47.43142 19.25924 458 ft 0 kts 43°
2026-05-05 17:01 47.43140 19.25922 457 ft 3 kts 43°
2026-05-05 17:02 47.43121 19.25895 455 ft 4 kts 43°
2026-05-05 17:02 47.43104 19.25873 455 ft 4 kts 28°
2026-05-05 17:02 47.43081 19.25866 456 ft 4 kts 337°
2026-05-05 17:02 47.43060 19.25889 456 ft 4 kts 313°
2026-05-05 17:03 47.43054 19.25898 457 ft 0 kts 312°
2026-05-05 17:04 47.43060 19.25888 456 ft 3 kts 312°
2026-05-05 17:04 47.43079 19.25858 455 ft 5 kts 312°
2026-05-05 17:04 47.43109 19.25809 456 ft 8 kts 312°
2026-05-05 17:05 47.43151 19.25743 457 ft 10 kts 313°
2026-05-05 17:05 47.43201 19.25662 457 ft 12 kts 312°
2026-05-05 17:05 47.43262 19.25564 457 ft 14 kts 312°
2026-05-05 17:05 47.43337 19.25443 457 ft 18 kts 313°
2026-05-05 17:06 47.43402 19.25335 457 ft 12 kts 308°
2026-05-05 17:06 47.43385 19.25226 457 ft 13 kts 223°
2026-05-05 17:06 47.43317 19.25124 457 ft 15 kts 239°
2026-05-05 17:06 47.43330 19.24974 457 ft 17 kts 308°
2026-05-05 17:07 47.43415 19.24836 457 ft 19 kts 312°
2026-05-05 17:07 47.43512 19.24679 456 ft 22 kts 312°
2026-05-05 17:07 47.43621 19.24503 457 ft 24 kts 313°
2026-05-05 17:07 47.43739 19.24311 457 ft 26 kts 312°
2026-05-05 17:08 47.43843 19.24143 456 ft 21 kts 312°
2026-05-05 17:08 47.43908 19.24021 457 ft 13 kts 291°
2026-05-05 17:08 47.43891 19.23886 456 ft 15 kts 231°
2026-05-05 17:08 47.43808 19.23761 455 ft 18 kts 230°
2026-05-05 17:09 47.43771 19.23589 457 ft 18 kts 261°
2026-05-05 17:09 47.43749 19.23401 457 ft 20 kts 261°
2026-05-05 17:09 47.43727 19.23195 457 ft 19 kts 262°
2026-05-05 17:09 47.43707 19.22993 457 ft 21 kts 261°
2026-05-05 17:10 47.43759 19.22824 457 ft 20 kts 323°
2026-05-05 17:10 47.43878 19.22690 457 ft 22 kts 323°
2026-05-05 17:10 47.43994 19.22674 457 ft 18 kts 20°
2026-05-05 17:10 47.44113 19.22637 457 ft 19 kts 333°
2026-05-05 17:11 47.44240 19.22544 457 ft 22 kts 334°
2026-05-05 17:11 47.44382 19.22440 457 ft 24 kts 333°
2026-05-05 17:11 47.44489 19.22262 456 ft 23 kts 303°
2026-05-05 17:11 47.44613 19.22109 457 ft 24 kts 322°
2026-05-05 17:12 47.44712 19.22003 457 ft 13 kts 334°
2026-05-05 17:12 47.44804 19.22012 456 ft 14 kts 36°
2026-05-05 17:12 47.44826 19.22146 457 ft 16 kts 114°
2026-05-05 17:12 47.44787 19.22219 456 ft 0 kts 132°
2026-05-05 17:13 47.44775 19.22238 455 ft 5 kts 131°
2026-05-05 17:13 47.44644 19.22449 451 ft 64 kts 133°
2026-05-05 17:13 47.44195 19.23174 454 ft 124 kts 132°
2026-05-05 17:13 47.43495 19.24298 468 ft 168 kts 136°
2026-05-05 17:14 47.42701 19.25588 1020 ft 172 kts 136°
2026-05-05 17:14 47.41892 19.26891 1718 ft 173 kts 137°
2026-05-05 17:14 47.41039 19.28260 2086 ft 190 kts 137°
2026-05-05 17:14 47.40090 19.29776 2357 ft 214 kts 137°
2026-05-05 17:15 47.39019 19.31487 2685 ft 237 kts 137°
2026-05-05 17:15 47.37886 19.33317 3493 ft 244 kts 136°
2026-05-05 17:15 47.36739 19.35181 4457 ft 245 kts 136°
2026-05-05 17:15 47.35421 19.36796 5124 ft 255 kts 161°
2026-05-05 17:16 47.33691 19.37035 5876 ft 257 kts 195°
2026-05-05 17:16 47.32164 19.35672 6745 ft 261 kts 227°
2026-05-05 17:16 47.31170 19.33441 7655 ft 265 kts 240°
2026-05-05 17:16 47.30383 19.30954 8587 ft 268 kts 243°
2026-05-05 17:17 47.29629 19.28459 9470 ft 270 kts 242°
2026-05-05 17:17 47.28812 19.25938 10249 ft 276 kts 240°
2026-05-05 17:17 47.27888 19.23330 10534 ft 299 kts 238°
2026-05-05 17:17 47.26849 19.20607 11012 ft 311 kts 237°
2026-05-05 17:18 47.25740 19.17820 11709 ft 315 kts 236°
2026-05-05 17:18 47.24611 19.15054 12427 ft 320 kts 236°
2026-05-05 17:18 47.23449 19.12249 13144 ft 324 kts 236°
2026-05-05 17:18 47.22258 19.09389 13854 ft 328 kts 236°
2026-05-05 17:19 47.21184 19.06427 14460 ft 334 kts 247°
2026-05-05 17:19 47.20696 19.03027 15046 ft 344 kts 265°
2026-05-05 17:19 47.20954 18.99505 15662 ft 352 kts 283°
2026-05-05 17:19 47.21961 18.96208 16283 ft 361 kts 301°
2026-05-05 17:20 47.23490 18.93261 16921 ft 364 kts 306°
2026-05-05 17:20 47.25057 18.90340 17636 ft 365 kts 306°
2026-05-05 17:20 47.26651 18.87370 18310 ft 367 kts 306°
2026-05-05 17:20 47.28226 18.84425 18887 ft 369 kts 306°
2026-05-05 17:21 47.29827 18.81415 19475 ft 372 kts 306°
2026-05-05 17:21 47.31418 18.78413 20051 ft 374 kts 306°
2026-05-05 17:21 47.33015 18.75394 20611 ft 377 kts 306°
2026-05-05 17:22 47.36262 18.69245 21683 ft 382 kts 306°
2026-05-05 17:22 47.37893 18.66155 22194 ft 384 kts 306°
2026-05-05 17:22 47.39537 18.63040 22712 ft 387 kts 306°
2026-05-05 17:22 47.41077 18.59736 23242 ft 387 kts 296°
2026-05-05 17:23 47.42184 18.56134 23714 ft 387 kts 287°
2026-05-05 17:23 47.42964 18.52327 24119 ft 390 kts 285°
2026-05-05 17:23 47.43735 18.48486 24528 ft 392 kts 285°
2026-05-05 17:23 47.44519 18.44636 24969 ft 394 kts 285°
2026-05-05 17:24 47.45316 18.40747 25412 ft 395 kts 285°
2026-05-05 17:24 47.46109 18.36874 25841 ft 397 kts 285°
2026-05-05 17:24 47.46912 18.32937 26294 ft 399 kts 285°
2026-05-05 17:24 47.47704 18.29030 26706 ft 401 kts 285°
2026-05-05 17:25 47.48507 18.25029 27119 ft 403 kts 284°
2026-05-05 17:25 47.49006 18.22363 27389 ft 404 kts 284°
2026-05-05 17:25 47.49914 18.17023 27900 ft 407 kts 282°
2026-05-05 17:25 47.50570 18.12893 28314 ft 409 kts 281°
2026-05-05 17:26 47.51208 18.08803 28717 ft 411 kts 281°
2026-05-05 17:26 47.51855 18.04677 29135 ft 413 kts 281°
2026-05-05 17:26 47.52512 18.00553 29542 ft 415 kts 282°
2026-05-05 17:26 47.53190 17.96354 29916 ft 418 kts 282°
2026-05-05 17:27 47.53869 17.92186 30241 ft 421 kts 282°
2026-05-05 17:27 47.54562 17.87956 30568 ft 423 kts 282°
2026-05-05 17:27 47.55267 17.83744 30913 ft 425 kts 285°
2026-05-05 17:27 47.56309 17.79598 31242 ft 429 kts 293°
2026-05-05 17:28 47.57756 17.75756 31695 ft 430 kts 298°
2026-05-05 17:28 47.59273 17.71983 32201 ft 427 kts 298°
2026-05-05 17:28 47.60791 17.68176 32744 ft 424 kts 298°
2026-05-05 17:28 47.62276 17.64434 33255 ft 422 kts 298°
2026-05-05 17:29 47.63751 17.60702 33671 ft 423 kts 298°
2026-05-05 17:29 47.65243 17.56925 34085 ft 422 kts 298°
2026-05-05 17:29 47.66717 17.53191 34505 ft 420 kts 298°
2026-05-05 17:29 47.68192 17.49453 34874 ft 419 kts 298°
2026-05-05 17:30 47.69671 17.45702 35204 ft 420 kts 298°
2026-05-05 17:30 47.71138 17.41965 35432 ft 422 kts 298°
2026-05-05 17:30 47.72606 17.38218 35694 ft 423 kts 298°
2026-05-05 17:30 47.74098 17.34418 35850 ft 423 kts 298°
2026-05-05 17:31 47.75566 17.30681 35857 ft 419 kts 298°
2026-05-05 17:31 47.78513 17.23181 35835 ft 416 kts 297°
2026-05-05 17:32 47.81421 17.15738 35835 ft 419 kts 297°
2026-05-05 17:32 47.83947 17.08068 35829 ft 413 kts 288°
2026-05-05 17:33 47.85948 17.00046 35810 ft 414 kts 288°
2026-05-05 17:33 47.87959 16.92032 35812 ft 415 kts 288°
2026-05-05 17:34 47.89976 16.83967 35800 ft 416 kts 287°
2026-05-05 17:34 47.91883 16.76300 35804 ft 417 kts 288°
2026-05-05 17:35 47.93939 16.68017 35810 ft 416 kts 288°
2026-05-05 17:35 47.95931 16.59950 35800 ft 416 kts 287°
2026-05-05 17:36 47.97934 16.51818 35788 ft 417 kts 288°
2026-05-05 17:36 47.99914 16.43723 35791 ft 417 kts 288°
2026-05-05 17:37 48.01907 16.35560 35794 ft 417 kts 287°
2026-05-05 17:37 48.03874 16.27475 35785 ft 417 kts 288°
2026-05-05 17:38 48.05854 16.19309 35762 ft 418 kts 288°
2026-05-05 17:38 48.07823 16.11156 35763 ft 418 kts 288°
2026-05-05 17:39 48.09789 16.02988 35761 ft 418 kts 287°
2026-05-05 17:39 48.11758 15.94780 35766 ft 418 kts 288°
2026-05-05 17:40 48.13714 15.86596 35760 ft 418 kts 288°
2026-05-05 17:40 48.15657 15.78434 35758 ft 418 kts 288°
2026-05-05 17:41 48.17595 15.70258 35753 ft 418 kts 288°
2026-05-05 17:41 48.19544 15.62019 35745 ft 417 kts 288°
2026-05-05 17:42 48.21469 15.53826 35762 ft 418 kts 287°
2026-05-05 17:42 48.23390 15.45608 35747 ft 418 kts 287°
2026-05-05 17:43 48.25309 15.37398 35739 ft 418 kts 287°
2026-05-05 17:43 48.27229 15.29159 35739 ft 418 kts 287°
2026-05-05 17:44 48.29134 15.20930 35737 ft 418 kts 287°
2026-05-05 17:44 48.31044 15.12661 35748 ft 418 kts 287°
2026-05-05 17:45 48.32942 15.04407 35742 ft 418 kts 287°
2026-05-05 17:45 48.34828 14.96167 35739 ft 418 kts 287°
2026-05-05 17:46 48.36734 14.87855 35738 ft 418 kts 287°
2026-05-05 17:46 48.38619 14.79594 35736 ft 418 kts 287°
2026-05-05 17:47 48.40485 14.71334 35744 ft 418 kts 286°
2026-05-05 17:47 48.42346 14.63044 35740 ft 418 kts 286°
2026-05-05 17:48 48.44206 14.54765 35743 ft 418 kts 286°
2026-05-05 17:48 48.46070 14.46454 35745 ft 417 kts 286°
2026-05-05 17:49 48.47915 14.38181 35752 ft 417 kts 286°
2026-05-05 17:49 48.49756 14.29895 35750 ft 417 kts 286°
2026-05-05 17:50 48.51343 14.22720 35751 ft 417 kts 286°
2026-05-05 17:50 48.53157 14.14421 35753 ft 417 kts 285°
2026-05-05 17:51 48.54923 14.06058 35754 ft 417 kts 285°
2026-05-05 17:51 48.56658 13.97750 35774 ft 417 kts 284°
2026-05-05 17:52 48.58403 13.89413 35759 ft 417 kts 284°
2026-05-05 17:52 48.60153 13.81055 35763 ft 417 kts 284°
2026-05-05 17:53 48.61888 13.72722 35754 ft 417 kts 284°
2026-05-05 17:53 48.63630 13.64314 35756 ft 417 kts 284°
2026-05-05 17:54 48.65352 13.55969 35774 ft 417 kts 284°
2026-05-05 17:54 48.67066 13.47606 35777 ft 417 kts 284°
2026-05-05 17:55 48.68778 13.39275 35772 ft 417 kts 284°
2026-05-05 17:55 48.70491 13.30896 35780 ft 417 kts 283°
2026-05-05 17:56 48.72196 13.22478 35779 ft 417 kts 283°
2026-05-05 17:56 48.73882 13.14116 35805 ft 417 kts 283°
2026-05-05 17:57 48.75576 13.05686 35796 ft 416 kts 283°
2026-05-05 17:57 48.77246 12.97349 35790 ft 416 kts 283°
2026-05-05 17:58 48.78924 12.88945 35789 ft 416 kts 283°
2026-05-05 17:58 48.80600 12.80532 35793 ft 416 kts 283°
2026-05-05 17:59 48.82265 12.72106 35783 ft 417 kts 283°
2026-05-05 17:59 48.83924 12.63658 35792 ft 418 kts 283°
2026-05-05 18:00 48.85573 12.55254 35799 ft 418 kts 283°
2026-05-05 18:00 48.87233 12.46785 35804 ft 418 kts 283°
2026-05-05 18:01 48.88875 12.38293 35810 ft 418 kts 283°
2026-05-05 18:01 48.90516 12.29790 35828 ft 419 kts 282°
2026-05-05 18:02 48.92152 12.21275 35823 ft 419 kts 282°
2026-05-05 18:02 48.93785 12.12769 35825 ft 420 kts 282°
2026-05-05 18:03 48.95421 12.04220 35828 ft 420 kts 282°
2026-05-05 18:03 48.97040 11.95690 35825 ft 420 kts 282°
2026-05-05 18:04 48.98655 11.87159 35837 ft 421 kts 281°
2026-05-05 18:04 49.00272 11.78569 35826 ft 422 kts 281°
2026-05-05 18:05 49.01881 11.69956 35824 ft 423 kts 281°
2026-05-05 18:05 49.03496 11.61298 35823 ft 423 kts 281°
2026-05-05 18:06 49.05095 11.52726 35824 ft 424 kts 281°
2026-05-05 18:06 49.06702 11.44061 35822 ft 425 kts 281°
2026-05-05 18:07 49.08299 11.35363 35814 ft 426 kts 281°
2026-05-05 18:07 49.09892 11.26655 35811 ft 426 kts 281°
2026-05-05 18:08 49.11483 11.17932 35819 ft 427 kts 281°
2026-05-05 18:08 49.13047 11.09246 35837 ft 426 kts 280°
2026-05-05 18:09 49.14382 11.00435 35847 ft 426 kts 277°
2026-05-05 18:09 49.15557 10.91561 35840 ft 426 kts 277°
2026-05-05 18:10 49.16742 10.82683 35862 ft 427 kts 277°
2026-05-05 18:10 49.17967 10.73781 35863 ft 428 kts 278°
2026-05-05 18:11 49.19199 10.64871 35893 ft 428 kts 278°
2026-05-05 18:11 49.20422 10.55979 35880 ft 430 kts 278°
2026-05-05 18:12 49.21645 10.47018 35865 ft 430 kts 278°
2026-05-05 18:12 49.22861 10.38035 35844 ft 431 kts 278°
2026-05-05 18:13 49.24063 10.29046 35846 ft 431 kts 277°
2026-05-05 18:13 49.25256 10.20051 35852 ft 432 kts 278°
2026-05-05 18:14 49.26447 10.11028 35842 ft 433 kts 278°
2026-05-05 18:14 49.27642 10.01983 35840 ft 434 kts 278°
2026-05-05 18:15 49.28826 9.92936 35840 ft 434 kts 277°
2026-05-05 18:15 49.30002 9.83879 35841 ft 434 kts 277°
2026-05-05 18:16 49.31177 9.74800 35853 ft 435 kts 278°
2026-05-05 18:16 49.32341 9.65708 35844 ft 435 kts 277°
2026-05-05 18:17 49.33497 9.56609 35838 ft 435 kts 277°
2026-05-05 18:17 49.34647 9.47517 35836 ft 435 kts 277°
2026-05-05 18:18 49.35795 9.38407 35851 ft 435 kts 277°
2026-05-05 18:18 49.36935 9.29275 35836 ft 436 kts 277°
2026-05-05 18:19 49.38067 9.20159 35829 ft 436 kts 277°
2026-05-05 18:19 49.39197 9.11013 35824 ft 437 kts 277°
2026-05-05 18:20 49.40317 9.01819 35828 ft 438 kts 277°
2026-05-05 18:20 49.41436 8.92610 35839 ft 438 kts 277°
2026-05-05 18:21 49.42549 8.83386 35842 ft 439 kts 277°
2026-05-05 18:21 49.43653 8.74165 35831 ft 440 kts 277°
2026-05-05 18:22 49.44758 8.64915 35835 ft 440 kts 277°
2026-05-05 18:22 49.45847 8.55671 35849 ft 440 kts 277°
2026-05-05 18:23 49.46924 8.46417 35840 ft 440 kts 277°
2026-05-05 18:23 49.47996 8.37168 35834 ft 441 kts 277°
2026-05-05 18:24 49.49074 8.27883 35842 ft 441 kts 277°
2026-05-05 18:24 49.50142 8.18616 35834 ft 441 kts 277°
2026-05-05 18:25 49.51199 8.09337 35840 ft 441 kts 276°
2026-05-05 18:25 49.52251 7.99981 35857 ft 441 kts 276°
2026-05-05 18:26 49.53291 7.90697 35845 ft 441 kts 277°
2026-05-05 18:26 49.54338 7.81373 35832 ft 441 kts 276°
2026-05-05 18:27 49.55360 7.72119 35826 ft 441 kts 276°
2026-05-05 18:27 49.56383 7.62778 35836 ft 441 kts 276°
2026-05-05 18:28 49.57895 7.48798 35844 ft 441 kts 276°
2026-05-05 18:28 49.58895 7.39472 35834 ft 441 kts 276°
2026-05-05 18:29 49.59890 7.30152 35837 ft 441 kts 276°
2026-05-05 18:29 49.60883 7.20781 35831 ft 441 kts 276°
2026-05-05 18:30 49.61863 7.11455 35845 ft 441 kts 276°
2026-05-05 18:30 49.62836 7.02109 35830 ft 441 kts 276°
2026-05-05 18:31 49.63797 6.92794 35826 ft 441 kts 276°
2026-05-05 18:31 49.64753 6.83428 35821 ft 441 kts 276°
2026-05-05 18:32 49.65706 6.74063 35838 ft 442 kts 276°
2026-05-05 18:32 49.66646 6.64724 35835 ft 442 kts 276°
2026-05-05 18:33 49.67583 6.55334 35828 ft 442 kts 276°
2026-05-05 18:33 49.68521 6.45932 35827 ft 442 kts 276°
2026-05-05 18:34 49.69436 6.36605 35825 ft 442 kts 276°
2026-05-05 18:34 49.70348 6.27163 35833 ft 442 kts 276°
2026-05-05 18:35 49.71248 6.17792 35476 ft 446 kts 276°
2026-05-05 18:35 49.71709 6.12974 34546 ft 456 kts 276°
2026-05-05 18:35 49.72171 6.08133 34079 ft 453 kts 276°
2026-05-05 18:36 49.72624 6.03367 33561 ft 451 kts 276°
2026-05-05 18:36 49.73081 5.98556 33040 ft 448 kts 276°
2026-05-05 18:36 49.73526 5.93851 32553 ft 444 kts 276°
2026-05-05 18:36 49.73734 5.89086 32085 ft 437 kts 266°
2026-05-05 18:37 49.73404 5.84489 31633 ft 431 kts 256°
2026-05-05 18:37 49.72581 5.80103 31175 ft 424 kts 248°
2026-05-05 18:37 49.71579 5.75818 30732 ft 421 kts 248°
2026-05-05 18:37 49.70920 5.72994 30449 ft 418 kts 248°
2026-05-05 18:38 49.69931 5.68750 30024 ft 416 kts 248°
2026-05-05 18:38 49.68644 5.63208 29432 ft 412 kts 248°
2026-05-05 18:38 49.67991 5.60394 29162 ft 409 kts 248°
2026-05-05 18:38 49.67045 5.56326 28763 ft 404 kts 248°
2026-05-05 18:39 49.66094 5.52244 28381 ft 400 kts 248°
2026-05-05 18:39 49.65159 5.48255 28000 ft 396 kts 248°
2026-05-05 18:39 49.64224 5.44293 27617 ft 393 kts 248°
2026-05-05 18:39 49.63286 5.40334 27213 ft 391 kts 248°
2026-05-05 18:40 49.62357 5.36401 26826 ft 387 kts 248°
2026-05-05 18:40 49.61479 5.32513 26426 ft 385 kts 249°
2026-05-05 18:40 49.60630 5.28572 26025 ft 382 kts 250°
2026-05-05 18:40 49.60146 5.24642 25902 ft 373 kts 266°
2026-05-05 18:41 49.60134 5.20661 25824 ft 362 kts 268°
2026-05-05 18:41 49.60143 5.16882 25743 ft 350 kts 268°
2026-05-05 18:41 49.60154 5.13121 25666 ft 348 kts 268°
2026-05-05 18:41 49.60164 5.09406 25590 ft 350 kts 268°
2026-05-05 18:42 49.60174 5.05635 25513 ft 350 kts 268°
2026-05-05 18:42 49.60185 5.01893 25332 ft 350 kts 268°
2026-05-05 18:42 49.60194 4.98190 24971 ft 348 kts 268°
2026-05-05 18:42 49.60203 4.94428 24567 ft 348 kts 268°
2026-05-05 18:43 49.60209 4.90733 24168 ft 348 kts 269°
2026-05-05 18:43 49.60207 4.86982 23761 ft 348 kts 269°
2026-05-05 18:43 49.60204 4.83281 23345 ft 348 kts 269°
2026-05-05 18:43 49.60201 4.79549 22890 ft 347 kts 269°
2026-05-05 18:44 49.60203 4.75823 22482 ft 345 kts 269°
2026-05-05 18:44 49.60206 4.72147 22075 ft 343 kts 269°
2026-05-05 18:44 49.60208 4.68457 21663 ft 342 kts 268°
2026-05-05 18:44 49.60206 4.64779 21261 ft 343 kts 269°
2026-05-05 18:45 49.60200 4.61118 20851 ft 344 kts 268°
2026-05-05 18:45 49.60189 4.57456 20447 ft 344 kts 269°
2026-05-05 18:45 49.60180 4.53735 20030 ft 344 kts 268°
2026-05-05 18:45 49.60172 4.50083 19622 ft 342 kts 268°
2026-05-05 18:46 49.60162 4.46404 19213 ft 340 kts 268°
2026-05-05 18:46 49.60150 4.42787 18808 ft 338 kts 268°
2026-05-05 18:46 49.60138 4.39143 18401 ft 337 kts 267°
2026-05-05 18:46 49.60126 4.35562 17984 ft 337 kts 268°
2026-05-05 18:47 49.60113 4.31949 17550 ft 335 kts 267°
2026-05-05 18:47 49.60097 4.28406 17151 ft 331 kts 268°
2026-05-05 18:47 49.60081 4.24874 16754 ft 329 kts 268°
2026-05-05 18:47 49.60064 4.21359 16360 ft 326 kts 267°
2026-05-05 18:48 49.60045 4.17858 15968 ft 324 kts 267°
2026-05-05 18:48 49.60028 4.14428 15585 ft 322 kts 267°
2026-05-05 18:48 49.60012 4.10955 15195 ft 319 kts 268°
2026-05-05 18:48 49.59997 4.07536 14817 ft 318 kts 267°
2026-05-05 18:49 49.59981 4.04180 14449 ft 316 kts 268°
2026-05-05 18:49 49.59959 4.00773 14058 ft 315 kts 268°
2026-05-05 18:49 49.59934 3.97427 13685 ft 314 kts 267°
2026-05-05 18:49 49.59909 3.94057 13273 ft 312 kts 268°
2026-05-05 18:50 49.59884 3.90729 12896 ft 310 kts 267°
2026-05-05 18:50 49.59856 3.87408 12524 ft 308 kts 266°
2026-05-05 18:50 49.59822 3.84133 12240 ft 302 kts 266°
2026-05-05 18:50 49.59754 3.80983 12169 ft 290 kts 265°
2026-05-05 18:51 49.59670 3.77941 12097 ft 279 kts 265°
2026-05-05 18:51 49.59581 3.75014 12041 ft 269 kts 264°
2026-05-05 18:51 49.59487 3.72101 11975 ft 271 kts 265°
2026-05-05 18:51 49.59396 3.69216 11913 ft 272 kts 264°
2026-05-05 18:52 49.59305 3.66279 11839 ft 272 kts 264°
2026-05-05 18:52 49.59219 3.63400 11792 ft 271 kts 265°
2026-05-05 18:52 49.59131 3.60503 11731 ft 272 kts 264°
2026-05-05 18:52 49.59042 3.57572 11680 ft 274 kts 265°
2026-05-05 18:53 49.58954 3.54648 11616 ft 276 kts 266°
2026-05-05 18:53 49.58863 3.51680 11553 ft 276 kts 266°
2026-05-05 18:53 49.58774 3.48728 11492 ft 277 kts 265°
2026-05-05 18:53 49.58681 3.45756 11433 ft 276 kts 266°
2026-05-05 18:54 49.58588 3.42824 11366 ft 276 kts 265°
2026-05-05 18:54 49.58482 3.39749 11300 ft 294 kts 265°
2026-05-05 18:54 49.58376 3.36598 11226 ft 298 kts 266°
2026-05-05 18:54 49.58276 3.33368 11147 ft 299 kts 266°
2026-05-05 18:55 49.58178 3.30181 11071 ft 299 kts 266°
2026-05-05 18:55 49.58079 3.27012 11019 ft 298 kts 265°
2026-05-05 18:55 49.57979 3.23791 11020 ft 299 kts 265°
2026-05-05 18:55 49.57875 3.20603 11019 ft 299 kts 265°
2026-05-05 18:56 49.57770 3.17414 11019 ft 300 kts 265°
2026-05-05 18:56 49.57663 3.14189 11018 ft 300 kts 266°
2026-05-05 18:56 49.57553 3.10987 11020 ft 304 kts 268°
2026-05-05 18:56 49.57465 3.07705 11020 ft 305 kts 271°
2026-05-05 18:57 49.57499 3.04452 11021 ft 305 kts 272°
2026-05-05 18:57 49.57561 3.01175 10773 ft 303 kts 272°
2026-05-05 18:57 49.57611 2.97967 10438 ft 302 kts 272°
2026-05-05 18:57 49.57653 2.94726 10086 ft 300 kts 272°
2026-05-05 18:58 49.57682 2.91495 9743 ft 300 kts 272°
2026-05-05 18:58 49.57705 2.88306 9401 ft 298 kts 272°
2026-05-05 18:58 49.57733 2.85158 9066 ft 295 kts 272°
2026-05-05 18:58 49.57757 2.81972 8712 ft 294 kts 272°
2026-05-05 18:59 49.57784 2.78857 8371 ft 291 kts 272°
2026-05-05 18:59 49.57808 2.75721 8000 ft 290 kts 272°
2026-05-05 18:59 49.57830 2.72635 7648 ft 289 kts 272°
2026-05-05 18:59 49.57855 2.69532 7346 ft 288 kts 272°
2026-05-05 19:00 49.57865 2.66481 7070 ft 286 kts 272°
2026-05-05 19:00 49.57866 2.63402 6819 ft 284 kts 272°
2026-05-05 19:00 49.57857 2.60378 6582 ft 284 kts 272°
2026-05-05 19:00 49.57845 2.57357 6372 ft 283 kts 272°
2026-05-05 19:01 49.57831 2.54346 6154 ft 282 kts 272°
2026-05-05 19:01 49.57815 2.51299 5917 ft 282 kts 272°
2026-05-05 19:01 49.57798 2.48312 5718 ft 281 kts 272°
2026-05-05 19:01 49.57772 2.45296 5481 ft 280 kts 272°
2026-05-05 19:02 49.57741 2.42322 5268 ft 279 kts 272°
2026-05-05 19:02 49.57703 2.39314 4971 ft 279 kts 272°
2026-05-05 19:02 49.57655 2.36342 4846 ft 278 kts 272°
2026-05-05 19:02 49.57602 2.33330 4857 ft 280 kts 272°
2026-05-05 19:03 49.57549 2.30344 4864 ft 281 kts 272°
2026-05-05 19:03 49.57499 2.27349 4802 ft 280 kts 272°
2026-05-05 19:03 49.57457 2.24340 4502 ft 279 kts 271°
2026-05-05 19:03 49.57412 2.21377 4235 ft 275 kts 272°
2026-05-05 19:04 49.57367 2.18452 3933 ft 274 kts 272°
2026-05-05 19:04 49.57328 2.15491 3559 ft 274 kts 272°
2026-05-05 19:04 49.57291 2.12569 3218 ft 274 kts 272°
2026-05-05 19:04 49.57433 2.09703 2996 ft 268 kts 288°
2026-05-05 19:05 49.57961 2.06929 2974 ft 268 kts 292°
2026-05-05 19:05 49.58525 2.04210 2982 ft 269 kts 291°
2026-05-05 19:05 49.59112 2.01462 2982 ft 269 kts 292°
2026-05-05 19:05 49.59702 1.98743 2979 ft 267 kts 292°
2026-05-05 19:06 49.60281 1.96032 2977 ft 268 kts 292°
2026-05-05 19:06 49.60846 1.93321 2980 ft 264 kts 292°
2026-05-05 19:06 49.61387 1.90691 2980 ft 247 kts 292°
2026-05-05 19:06 49.61854 1.88250 2981 ft 232 kts 283°
2026-05-05 19:07 49.61679 1.85841 2993 ft 227 kts 247°
2026-05-05 19:07 49.60699 1.83994 2995 ft 229 kts 214°
2026-05-05 19:07 49.59250 1.83161 2988 ft 214 kts 179°
2026-05-05 19:07 49.57862 1.83564 2989 ft 201 kts 148°
2026-05-05 19:08 49.56832 1.84894 2986 ft 189 kts 120°
2026-05-05 19:08 49.56098 1.86589 2985 ft 189 kts 117°
2026-05-05 19:08 49.55392 1.88239 2990 ft 179 kts 117°
2026-05-05 19:08 49.54747 1.89730 2977 ft 156 kts 116°
2026-05-05 19:09 49.54160 1.91100 2980 ft 153 kts 116°
2026-05-05 19:09 49.53580 1.92449 2991 ft 149 kts 116°
2026-05-05 19:09 49.53012 1.93767 2900 ft 145 kts 115°
2026-05-05 19:09 49.52456 1.95059 2752 ft 144 kts 115°
2026-05-05 19:10 49.51918 1.96305 2593 ft 138 kts 114°
2026-05-05 19:10 49.51389 1.97532 2411 ft 136 kts 114°
2026-05-05 19:10 49.50870 1.98735 2218 ft 135 kts 112°
2026-05-05 19:10 49.50336 1.99977 2040 ft 141 kts 115°
2026-05-05 19:11 49.49783 2.01256 1844 ft 144 kts 115°
2026-05-05 19:11 49.49230 2.02534 1651 ft 145 kts 116°
2026-05-05 19:11 49.48668 2.03833 1450 ft 145 kts 117°
2026-05-05 19:11 49.48109 2.05124 1234 ft 143 kts 118°
2026-05-05 19:12 49.47562 2.06387 1030 ft 144 kts 118°
2026-05-05 19:12 49.47007 2.07668 830 ft 141 kts 118°
2026-05-05 19:12 49.46471 2.08905 643 ft 138 kts 119°
2026-05-05 19:12 49.45946 2.10105 457 ft 135 kts 119°
2026-05-05 19:13 49.45458 2.11250 349 ft 110 kts 123°
2026-05-05 19:13 49.45123 2.12015 332 ft 61 kts 123°
2026-05-05 19:13 49.44938 2.12439 324 ft 44 kts 124°
2026-05-05 19:13 49.44781 2.12804 316 ft 31 kts 124°